Voltar ao catálogo

SDA_1674

AtivoMilitarPO
NORAD 65984·PAYLOAD·🇺🇸 United States

Lançado Oct 15, 2025 de Vandenberg Space Force Base

Loading…

Próximas Passagens (próximas 24 horas)

TLE

AtualizadoSource: Space-Track

Época: Sep 14, 2026, 14:56 UTC

1 65984U 25230L   26257.62225938  .00000122  00000-0  10258-3 0  9997
2 65984  81.2996 129.1926 0001710  33.2394 326.8869 13.82090036 46163

Acompanhe SDA_1674 em tempo real com AllMySat

Download on the App Store